Tracking 28792 objects as of 24-Apr-2024
HD Live streaming from Space Station
objects crossing your sky now

SL-3 DEB

Track SL-3 DEB now!
10-day predictions


NORAD ID: 14229
Int'l Code: 1983-075D
Perigee: 541.5 km
Apogee: 588.6 km
Inclination: 97.8 °
Period: 95.8 minutes
Semi major axis: 6936 km
RCS: 0.0149 m2 (small)
Launch date: July 24, 1983
Source: Commonwealth of Independent States (former USSR) (CIS)
Launch site: TYURATAM MISSILE AND SPACE COMPLEX (TTMTR)

Note: This is SATELLITE DEBRIS
Your satellite tracking list
Your tracking list is empty




NASA's NSSDC Master Catalog

Two Line Element Set (TLE):
1 14229U 83075D   24114.89904512  .00005838  00000-0  43417-3 0  9997
2 14229  97.8110  84.3863 0033993 105.7686 308.7139 15.02909021213318
Source of the keplerian elements: AFSPC